Date,TemperatureHighF,TemperatureAvgF,TemperatureLowF,DewpointHighF,DewpointAvgF,DewpointLowF,HumidityHigh,HumidityAvg,HumidityLow,PressureMaxIn,PressureMinIn,WindSpeedMaxMPH,WindSpeedAvgMPH,GustSpeedMaxMPH,PrecipitationSumIn
2013-4-1,57.7,50.6,42.8,50.7,42.5,35.6,96,75,53,30.05,29.87,19,2,20,0.02
2013-4-2,55.2,44.5,35.5,35.9,25.7,17.4,80,51,26,30.20,30.04,15,2,15,0.00
2013-4-3,61.3,48.2,37.4,30.8,26.5,20.1,59,44,27,30.26,30.15,13,1,15,0.00
2013-4-4,49.2,40.0,35.8,37.7,34.8,28.2,97,84,44,30.18,30.00,18,1,18,1.08
2013-4-5,58.6,46.8,38.4,44.5,38.3,32.6,98,75,41,30.12,30.00,17,1,17,0.02
2013-4-6,70.0,53.5,37.8,41.8,36.0,33.1,86,55,29,30.25,30.08,15,1,15,0.00
2013-4-7,69.3,57.6,43.9,45.2,40.1,35.2,74,53,38,30.20,30.06,17,2,17,0.00
2013-4-8,72.6,62.1,51.4,52.2,47.9,43.8,79,61,44,30.13,30.03,20,2,20,0.00
2013-4-9,80.0,66.6,55.2,55.6,52.2,49.6,83,62,37,30.18,30.05,18,1,18,0.00
2013-4-10,83.6,69.9,56.2,58.8,54.1,51.4,85,60,34,30.09,29.88,10,1,17,0.00
2013-4-11,75.5,67.8,58.6,61.7,55.6,50.0,95,66,47,29.89,29.63,23,3,23,0.93
2013-4-12,62.9,56.1,48.4,57.9,47.9,37.1,95,76,45,29.95,29.57,29,2,29,0.37
2013-4-13,68.2,55.6,44.5,39.7,35.8,24.3,78,50,22,30.07,29.94,19,2,19,0.00
2013-4-14,67.0,54.3,44.7,48.2,40.4,34.5,91,61,36,30.10,29.93,22,2,25,0.07
2013-4-15,80.8,62.1,50.3,58.4,52.8,48.1,97,75,40,30.14,29.93,13,1,13,0.01
2013-4-16,81.7,66.6,55.3,62.7,57.0,53.1,94,74,44,30.24,30.08,10,1,14,0.07
2013-4-17,78.2,66.9,61.7,66.7,59.9,56.5,93,79,57,30.21,30.09,10,0,10,0.33
2013-4-18,74.0,68.0,60.5,60.3,56.5,53.0,92,68,51,30.07,29.84,21,2,21,0.00
2013-4-19,67.8,57.6,40.1,60.6,51.5,32.9,94,80,69,30.04,29.69,34,4,34,0.68
2013-4-20,57.7,45.0,33.2,33.9,30.3,25.9,83,59,34,30.30,30.03,21,2,21,0.00
2013-4-21,66.3,51.2,38.6,36.8,32.8,28.8,78,52,30,30.42,30.24,13,1,13,0.00
2013-4-22,70.8,55.0,41.1,43.1,38.4,35.7,83,56,31,30.38,30.12,14,1,14,0.00
2013-4-23,75.2,56.9,43.1,48.7,40.0,34.0,77,55,33,30.23,30.05,15,1,15,0.00
2013-4-24,67.3,58.4,45.5,56.7,52.0,42.7,93,80,62,30.16,30.01,22,3,22,0.34
2013-4-25,64.3,49.5,36.5,46.0,35.7,25.4,95,65,26,30.37,30.15,19,1,19,0.00
2013-4-26,71.8,55.4,40.3,42.4,36.1,29.5,75,50,25,30.44,30.26,17,1,17,0.00
2013-4-27,56.9,49.7,46.4,49.8,47.0,41.0,98,91,57,30.37,30.21,14,1,14,1.39
2013-4-28,51.8,50.6,48.8,51.4,49.9,48.0,99,98,96,30.22,29.98,13,1,13,1.80
2013-4-29,71.2,58.6,51.0,58.5,52.6,49.0,99,82,55,30.05,29.90,10,0,10,0.01
2013-4-30,80.0,63.4,50.4,57.8,52.4,48.6,96,70,38,30.08,29.94,11,0,11,0.00